| time (UTC) | temp F | wind direction | speed MPH | gust MPH | rain 1hr in | rain 24hr in | rain mn in | humidity % | barometer mb |
| 20260507171323 | 66 | 250 | 4.0 | 8.0 | 0.00 | 0.21 | 0.02 | 62 | 1010.7 |
| 20260507170323 | 66 | 282 | 3.0 | 9.0 | 0.00 | 0.21 | 0.02 | 62 | 1010.6 |
| 20260507165322 | 67 | 282 | 3.0 | 8.0 | 0.00 | 0.21 | 0.02 | 62 | 1010.5 |
| 20260507164323 | 68 | 270 | 5.0 | 9.0 | 0.00 | 0.28 | 0.02 | 59 | 1010.5 |
| 20260507163323 | 67 | 293 | 3.0 | 7.0 | 0.00 | 0.29 | 0.02 | 62 | 1010.5 |
| 20260507162323 | 67 | 308 | 5.0 | 10.0 | 0.00 | 0.29 | 0.02 | 60 | 1010.5 |
| 20260507161322 | 67 | 249 | 5.0 | 10.0 | 0.00 | 0.29 | 0.02 | 60 | 1010.5 |
| 20260507160322 | 68 | 271 | 4.0 | 9.0 | 0.00 | 0.29 | 0.02 | 60 | 1010.5 |
| 20260507155321 | 68 | 242 | 5.0 | 12.0 | 0.00 | 0.29 | 0.02 | 58 | 1010.5 |
| 20260507154320 | 68 | 273 | 5.0 | 13.0 | 0.00 | 0.29 | 0.02 | 58 | 1010.4 |
| 20260507153320 | 68 | 314 | 5.0 | 10.0 | 0.00 | 0.29 | 0.02 | 56 | 1010.4 |
| 20260507152320 | 68 | 269 | 5.0 | 10.0 | 0.00 | 0.29 | 0.02 | 55 | 1010.4 |
| 20260507151320 | 68 | 246 | 4.0 | 10.0 | 0.00 | 0.29 | 0.02 | 56 | 1010.4 |
| 20260507150323 | 69 | 275 | 4.0 | 9.0 | 0.00 | 0.29 | 0.02 | 53 | 1010.4 |
| 20260507145321 | 69 | 234 | 3.0 | 7.0 | 0.00 | 0.29 | 0.02 | 54 | 1010.4 |
| 20260507144320 | 70 | 236 | 4.0 | 9.0 | 0.00 | 0.29 | 0.02 | 56 | 1010.5 |
| 20260507143320 | 69 | 188 | 4.0 | 8.0 | 0.00 | 0.29 | 0.02 | 58 | 1010.5 |
| 20260507142318 | 69 | 279 | 2.0 | 6.0 | 0.00 | 0.29 | 0.02 | 54 | 1010.6 |
| 20260507141318 | 68 | 294 | 3.0 | 8.0 | 0.00 | 0.29 | 0.02 | 55 | 1010.8 |
| 20260507140318 | 69 | 319 | 3.0 | 6.0 | 0.00 | 0.29 | 0.02 | 55 | 1010.9 |
| 20260507135318 | 69 | 212 | 1.0 | 4.0 | 0.00 | 0.29 | 0.02 | 62 | 1011.0 |
| 20260507133319 | 66 | 213 | 1.0 | 4.0 | 0.00 | 0.29 | 0.02 | 59 | 1011.2 |
| 20260507132318 | 66 | 192 | 2.0 | 4.0 | 0.00 | 0.29 | 0.02 | 59 | 1011.3 |
| 20260507131319 | 65 | 123 | 3.0 | 7.0 | 0.00 | 0.29 | 0.02 | 60 | 1011.4 |
| 20260507130318 | 65 | 94 | 3.0 | 7.0 | 0.00 | 0.29 | 0.02 | 59 | 1011.4 |
| 20260507123318 | 62 | 336 | 10.0 | 19.0 | 0.00 | 0.29 | 0.02 | 73 | 1011.4 |
| 20260507121319 | 68 | 240 | 6.0 | 12.0 | 0.00 | 0.29 | 0.02 | 60 | 1011.0 |
| 20260507115322 | 70 | 273 | 5.0 | 10.0 | 0.00 | 0.29 | 0.02 | 61 | 1010.9 |
| 20260507114319 | 70 | 288 | 6.0 | 13.0 | 0.00 | 0.29 | 0.02 | 58 | 1010.9 |
| 20260507113318 | 69 | 245 | 6.0 | 12.0 | 0.00 | 0.30 | 0.02 | 58 | 1011.1 |
| 20260507111320 | 69 | 265 | 4.0 | 9.0 | 0.00 | 0.36 | 0.02 | 57 | 1011.5 |
| 20260507105316 | 67 | 314 | 4.0 | 10.0 | 0.00 | 0.40 | 0.02 | 63 | 1011.6 |
| 20260507104315 | 66 | 272 | 5.0 | 11.0 | 0.00 | 0.40 | 0.02 | 66 | 1011.6 |
| 20260507103316 | 65 | 244 | 6.0 | 12.0 | 0.00 | 0.41 | 0.02 | 65 | 1011.7 |
| 20260507102316 | 65 | 190 | 5.0 | 10.0 | 0.00 | 0.44 | 0.02 | 64 | 1011.8 |
| 20260507101316 | 66 | 291 | 5.0 | 11.0 | 0.00 | 0.45 | 0.02 | 62 | 1011.8 |
| 20260507100314 | 66 | 288 | 5.0 | 11.0 | 0.00 | 0.46 | 0.02 | 61 | 1011.9 |
| 20260507095314 | 66 | 294 | 2.0 | 9.0 | 0.00 | 0.47 | 0.02 | 62 | 1012.0 |
| 20260507094313 | 65 | 203 | 3.0 | 9.0 | 0.00 | 0.47 | 0.02 | 64 | 1012.1 |
| 20260507092312 | 64 | 227 | 4.0 | 9.0 | 0.00 | 0.47 | 0.02 | 67 | 1012.1 |
| 20260507091311 | 63 | 283 | 3.0 | 7.0 | 0.00 | 0.47 | 0.02 | 66 | 1012.1 |
| 20260507090311 | 63 | 204 | 4.0 | 8.0 | 0.00 | 0.47 | 0.02 | 66 | 1012.1 |
| 20260507085311 | 63 | 242 | 4.0 | 9.0 | 0.00 | 0.47 | 0.02 | 66 | 1012.2 |
| 20260507084312 | 63 | 225 | 4.0 | 8.0 | 0.00 | 0.47 | 0.02 | 69 | 1012.1 |
| 20260507083311 | 62 | 207 | 3.0 | 8.0 | 0.00 | 0.47 | 0.02 | 72 | 1012.1 |
| 20260507081311 | 60 | 240 | 3.0 | 6.0 | 0.00 | 0.47 | 0.02 | 72 | 1012.0 |
| 20260507080311 | 59 | 208 | 3.0 | 7.0 | 0.00 | 0.47 | 0.02 | 72 | 1012.0 |
| 20260507075311 | 58 | 273 | 1.0 | 4.0 | 0.00 | 0.47 | 0.02 | 71 | 1011.9 |
| 20260507074311 | 58 | 289 | 1.0 | 3.0 | 0.00 | 0.49 | 0.02 | 71 | 1011.9 |
| 20260507073310 | 58 | 351 | 1.0 | 3.0 | 0.00 | 0.50 | 0.02 | 73 | 1011.9 |
| 20260507072310 | 58 | 344 | 2.0 | 4.0 | 0.00 | 0.51 | 0.02 | 73 | 1011.9 |
| 20260507071306 | 58 | 34 | 2.0 | 5.0 | 0.00 | 0.53 | 0.02 | 72 | 1011.9 |
| 20260507070305 | 57 | 24 | 3.0 | 6.0 | 0.00 | 0.55 | 0.02 | 72 | 1011.9 |
| 20260507064306 | 56 | 26 | 2.0 | 4.0 | 0.00 | 0.58 | 0.02 | 76 | 1011.8 |
| 20260507063305 | 55 | 18 | 2.0 | 4.0 | 0.00 | 0.61 | 0.02 | 78 | 1011.9 |
| 20260507062306 | 55 | 0 | 1.0 | 4.0 | 0.00 | 0.64 | 0.02 | 80 | 1011.9 |
| 20260507061305 | 54 | 59 | 2.0 | 4.0 | 0.00 | 0.67 | 0.02 | 80 | 1011.8 |
| 20260507060304 | 55 | 104 | 3.0 | 7.0 | 0.00 | 0.69 | 0.02 | 80 | 1011.8 |
| 20260507055306 | 54 | 159 | 4.0 | 10.0 | 0.00 | 0.69 | 0.02 | 81 | 1011.6 |
| 20260507054308 | 54 | 52 | 3.0 | 7.0 | 0.00 | 0.71 | 0.02 | 81 | 1011.6 |
| 20260507053305 | 53 | 103 | 3.0 | 8.0 | 0.00 | 0.71 | 0.02 | 81 | 1011.5 |
| 20260507052306 | 53 | 92 | 2.0 | 5.0 | 0.00 | 0.72 | 0.02 | 84 | 1011.5 |
| 20260507051305 | 53 | 65 | 3.0 | 7.0 | 0.00 | 0.75 | 0.02 | 84 | 1011.6 |
| 20260507045306 | 53 | 34 | 2.0 | 4.0 | 0.00 | 0.78 | 0.02 | 86 | 1011.5 |
| 20260507043302 | 53 | 70 | 3.0 | 7.0 | 0.00 | 0.80 | 0.02 | 87 | 1011.5 |
| 20260507042307 | 53 | 60 | 2.0 | 4.0 | 0.00 | 0.80 | 0.02 | 88 | 1011.4 |
| 20260507041302 | 52 | 30 | 2.0 | 4.0 | 0.00 | 0.80 | 0.02 | 88 | 1011.2 |
| 20260507040301 | 52 | 63 | 1.0 | 3.0 | 0.00 | 0.80 | 0.02 | 90 | 1011.3 |
| 20260507034300 | 53 | 23 | 2.0 | 4.0 | 0.00 | 0.80 | 0.02 | 88 | 1011.2 |
| 20260507033259 | 53 | 61 | 2.0 | 5.0 | 0.00 | 0.80 | 0.02 | 86 | 1011.2 |
| 20260507032258 | 53 | 71 | 4.0 | 8.0 | 0.00 | 0.80 | 0.02 | 85 | 1011.1 |
| 20260507031257 | 53 | 69 | 2.0 | 4.0 | 0.00 | 0.80 | 0.02 | 86 | 1011.0 |
| 20260507030257 | 53 | 57 | 3.0 | 5.0 | 0.00 | 0.80 | 0.02 | 86 | 1010.9 |
| 20260507025257 | 53 | 49 | 3.0 | 6.0 | 0.00 | 0.80 | 0.02 | 87 | 1010.6 |
| 20260507024258 | 53 | 36 | 3.0 | 8.0 | 0.00 | 0.80 | 0.02 | 86 | 1010.7 |
| 20260507023258 | 53 | 71 | 4.0 | 8.0 | 0.00 | 0.80 | 0.02 | 86 | 1010.7 |
| 20260507022257 | 53 | 79 | 5.0 | 9.0 | 0.00 | 0.80 | 0.02 | 86 | 1010.7 |
| 20260507020257 | 52 | 60 | 3.0 | 7.0 | 0.00 | 0.80 | 0.02 | 87 | 1010.8 |
| 20260507015257 | 52 | 46 | 4.0 | 9.0 | 0.00 | 0.80 | 0.02 | 88 | 1010.8 |
| 20260507014259 | 52 | 58 | 3.0 | 5.0 | 0.00 | 0.80 | 0.02 | 88 | 1010.8 |
| 20260507013257 | 52 | 5 | 5.0 | 10.0 | 0.01 | 0.80 | 0.02 | 88 | 1010.6 |
| 20260507011333 | 52 | 101 | 3.0 | 4.0 | 0.02 | 0.80 | 0.02 | 88 | 1010.5 |
| 20260507005257 | 52 | 53 | 3.0 | 9.0 | 0.02 | 0.80 | 0.02 | 89 | 1010.6 |
| 20260507003255 | 52 | 51 | 3.0 | 8.0 | 0.01 | 0.80 | 0.01 | 87 | 1010.9 |
| 20260507001254 | 53 | 26 | 2.0 | 5.0 | 0.00 | 0.79 | 0.00 | 86 | 1010.8 |
| 20260507000255 | 53 | 33 | 6.0 | 11.0 | 0.00 | 0.79 | 0.00 | 85 | 1010.8 |
| 20260506235255 | 53 | 89 | 5.0 | 10.0 | 0.00 | 0.79 | 0.00 | 85 | 1010.7 |
| 20260506234255 | 52 | 101 | 7.0 | 11.0 | 0.00 | 0.79 | 0.00 | 86 | 1010.8 |
| 20260506233254 | 52 | 71 | 4.0 | 9.0 | 0.00 | 0.80 | 0.00 | 87 | 1010.8 |
| 20260506232254 | 52 | 53 | 4.0 | 10.0 | 0.00 | 0.80 | 0.00 | 87 | 1010.8 |
| 20260506231304 | 52 | 70 | 4.0 | 8.0 | 0.00 | 0.82 | 0.00 | 87 | 1010.9 |
| 20260506230307 | 52 | 87 | 3.0 | 7.0 | 0.00 | 0.82 | 0.00 | 88 | 1010.8 |
| 20260506225255 | 52 | 50 | 2.0 | 5.0 | 0.00 | 0.83 | 0.00 | 88 | 1010.9 |
| 20260506224255 | 53 | 26 | 5.0 | 11.0 | 0.00 | 0.84 | 0.00 | 85 | 1011.0 |
| 20260506223252 | 53 | 88 | 6.0 | 12.0 | 0.00 | 0.87 | 0.00 | 85 | 1010.9 |
| 20260506222252 | 53 | 98 | 4.0 | 10.0 | 0.00 | 0.87 | 0.00 | 85 | 1011.0 |
| 20260506220253 | 53 | 67 | 1.0 | 3.0 | 0.00 | 0.87 | 0.00 | 86 | 1011.1 |
| 20260506215255 | 53 | 80 | 2.0 | 3.0 | 0.00 | 0.87 | 0.87 | 85 | 1010.9 |
| 20260506214252 | 53 | 73 | 2.0 | 4.0 | 0.00 | 0.87 | 0.87 | 85 | 1010.8 |
| 20260506213251 | 53 | 71 | 4.0 | 7.0 | 0.00 | 0.87 | 0.87 | 86 | 1010.9 |
| 20260506212251 | 53 | 91 | 3.0 | 6.0 | 0.00 | 0.87 | 0.87 | 86 | 1010.9 |
| 20260506210252 | 53 | 72 | 3.0 | 9.0 | 0.00 | 0.87 | 0.87 | 84 | 1010.9 |
| 20260506205251 | 53 | 61 | 7.0 | 12.0 | 0.00 | 0.87 | 0.87 | 83 | 1010.8 |
| 20260506204252 | 53 | 107 | 6.0 | 12.0 | 0.00 | 0.87 | 0.87 | 84 | 1010.7 |
| 20260506202251 | 53 | 152 | 7.0 | 10.0 | 0.00 | 0.87 | 0.87 | 86 | 1010.7 |
| 20260506201247 | 53 | 148 | 5.0 | 13.0 | 0.00 | 0.87 | 0.87 | 86 | 1010.8 |
| 20260506200247 | 53 | 141 | 3.0 | 8.0 | 0.00 | 0.87 | 0.87 | 88 | 1010.6 |
| 20260506195247 | 53 | 76 | 3.0 | 7.0 | 0.02 | 0.87 | 0.87 | 88 | 1010.5 |
| 20260506194247 | 54 | 47 | 4.0 | 12.0 | 0.03 | 0.87 | 0.87 | 88 | 1010.5 |
| 20260506192247 | 55 | 85 | 4.0 | 8.0 | 0.08 | 0.87 | 0.87 | 93 | 1010.5 |
| 20260506191247 | 56 | 105 | 2.0 | 4.0 | 0.09 | 0.87 | 0.87 | 94 | 1010.3 |
| 20260506190247 | 55 | 30 | 1.0 | 4.0 | 0.10 | 0.87 | 0.86 | 93 | 1010.2 |
| 20260506185247 | 56 | 288 | 1.0 | 3.0 | 0.10 | 0.85 | 0.85 | 93 | 1010.3 |
| 20260506184246 | 56 | 259 | 1.0 | 3.0 | 0.09 | 0.83 | 0.83 | 93 | 1010.0 |
| 20260506183250 | 56 | 265 | 2.0 | 4.0 | 0.09 | 0.80 | 0.80 | 92 | 1009.8 |
| 20260506182245 | 56 | 124 | 3.0 | 8.0 | 0.12 | 0.79 | 0.78 | 92 | 1009.4 |
| 20260506181245 | 56 | 227 | 2.0 | 7.0 | 0.10 | 0.77 | 0.77 | 92 | 1009.4 |
| 20260506175246 | 56 | 61 | 2.0 | 7.0 | 0.08 | 0.75 | 0.75 | 91 | 1007.9 |
| 20260506174245 | 56 | 78 | 3.0 | 7.0 | 0.15 | 0.75 | 0.75 | 90 | 1007.8 |
| 20260506173245 | 57 | 96 | 3.0 | 9.0 | 0.12 | 0.71 | 0.70 | 88 | 1007.6 |
| 20260506172244 | 58 | 87 | 5.0 | 8.0 | 0.08 | 0.67 | 0.67 | 86 | 1007.6 |